CLUSTER II-FM5 (RUMBA)

Last updated on Jan. 25, 2021, 10:48 a.m. UTC

1 26463U 00045A   21027.31425883  .00000135  00000-0  00000-0 0  9995
2 26463 136.4938 344.8063 5681966 194.0937 359.0583  0.44220027 11500
UTC
Height (km)
Latitude
Longitude
Inclination
Orbital Period
UTC large
Height (km)
Speed (km/s)
/
Latitude / Longitude
Inclination (degrees)
Orbital Period (minutes)
Azimuth
Elevation
Range (km)
Doppler Factor
iOS Compass Heading
iOS Angle

Next 30 passes for location: Hong Kong

Rise time Rise Azimuth (degrees) Set time Set Azimuth (degrees) Duration Max altitude (degrees)

No matching passes for this satellites